Weather observations for the past three days for
Rhinelander, Rhinelander-Oneida County Airport
Imperial (Metric)
Date Time (cdt) Wind (mph) Vis. (mi.) Weather Sky Cond. Temperature (ºF) Relative Humidity Wind Chill (°F) Heat Index (°F) Pressure Precipitation (in)
Air Dwpt 6 hour altimeter (in) sea level (mb) 1 hr 3 hr 6 hr
Max. Min.
19 05:53 Calm 10.00 Fair CLR 48 46 93% 30.18 1022.1
19 04:53 Calm 0.75 Fog/Mist CLR 48.9 46.9 93% 30.18 1021.9
19 03:53 W 3 1.00 Fog/Mist CLR 48 46 93% 30.17 1021.5
19 02:53 W 3 9.00 Fair CLR 48.9 46 90% 30.17 1021.5
19 01:53 W 3 7.00 Fair CLR 50 46.9 89% 30.17 1021.6
19 00:53 Calm 9.00 Fair CLR 51.1 48.9 73 50 92% 30.17 1021.7
18 23:53 W 3 10.00 Fair CLR 52 48 86% 30.17 1021.6
18 22:53 W 3 10.00 Fair CLR 54 51.1 90% 30.18 1021.9
18 21:53 W 3 10.00 Fair CLR 55 51.1 87% 30.18 1021.9
18 20:53 Calm 10.00 Fair CLR 60.1 53.1 78% 30.17 1021.4
18 19:53 Calm 10.00 Fair CLR 69.1 55 61% 30.17 1021.4
18 18:53 W 3 10.00 Fair CLR 72 50 77 70 46% 30.17 1021.7
18 17:53 W 8 10.00 Fair CLR 75 48 39% 77 30.18 1022.2
18 16:53 NW 7 10.00 Partly Cloudy SCT060 75 48 39% 77 30.19 1022.4
18 15:53 Vrbl 5 10.00 Fair CLR 75 46.9 37% 77 30.19 1022.5
18 14:53 Vrbl 5 10.00 Mostly Cloudy BKN060 75.9 48 37% 78 30.2 1022.7
18 13:53 Vrbl 5 10.00 Mostly Cloudy BKN055 72 48 43% 30.21 1023.2
18 12:53 Vrbl 7 10.00 Partly Cloudy SCT050 71.1 48 73.9 55 44% 30.21 1023.2
18 11:53 Calm 10.00 A Few Clouds FEW049 71.1 48 44% 30.22 1023.4
18 10:53 NW 5 10.00 Mostly Cloudy SCT043 BKN055 69.1 50 51% 30.22 1023.6
18 09:53 NW 10 G 16 10.00 Fair CLR 68 50 53% 30.24 1023.9
18 08:53 NW 7 10.00 Fair CLR 64.9 51.1 61% 30.25 1024.4
18 07:53 W 6 10.00 Fair CLR 60.1 51.1 72% 30.24 1024.1
18 06:53 W 6 10.00 Fair CLR 55 50 55 44.1 83% 30.24 1024.1
18 05:53 Calm 0.25 Fog VV002 46.9 45 93% 30.23 1024.2
18 04:53 W 3 1.00 Fog/Mist VV002 45 44.1 97% 30.22 1023.8
Date Time (cdt) Wind (mph) Vis. (mi.) Weather Sky Cond. Air Dwpt Max. Min. Relative Humidity Wind Chill (°F) Heat Index (°F) altimeter (in) sea level (mb) 1 hr 3 hr 6 hr
6 hour
Temperature (ºF) Pressure Precipitation (in)